When you browse on this site, cookies collect data to enhance your experience and personalize the content and advertising you see.
Visit our Privacy Policy to learn more. By continuing to use the site, you agree to this use of cookies and data.
  • In France
  • List of Countries
  • For 7 days
  • Water Temperature
  • Satellite Maps
  • Weather Map
  • Weather Widgets
  • user-avatar
    Login

    Hourly Weather Georgetown

    Today, 25 May, Saturday

    Time Temperature Precipitation Wind Pressure Humidity
    00:00 +30°C° 0 mm 3 mps 730 mmHg 27%
    01:00 +30°C° 0 mm 2 mps 730 mmHg 27%
    02:00 +30°C° 0 mm 3 mps 730 mmHg 26%
    03:00 +30°C° 0 mm 3 mps 730 mmHg 25%
    04:00 +31°C° 0 mm 3 mps 730 mmHg 24%
    05:00 +31°C° 0 mm 3 mps 731 mmHg 24%
    06:00 +31°C° 0 mm 2 mps 731 mmHg 25%
    07:00 +33°C° 0 mm 4 mps 732 mmHg 23%
    08:00 +34°C° 0 mm 3 mps 732 mmHg 23%
    09:00 +36°C° 0 mm 2 mps 732 mmHg 23%
    10:00 +37°C° 0 mm 1 mps 732 mmHg 23%
    11:00 +38°C° 0 mm 2 mps 731 mmHg 22%
    12:00 +38°C° 0 mm 3 mps 731 mmHg 21%
    13:00 +38°C° 0 mm 4 mps 731 mmHg 21%
    14:00 +38°C° 0 mm 4 mps 730 mmHg 21%
    15:00 +38°C° 0 mm 4 mps 730 mmHg 20%
    16:00 +38°C° 0 mm 3 mps 729 mmHg 20%
    17:00 +37°C° 0 mm 3 mps 729 mmHg 21%
    18:00 +35°C° 0 mm 3 mps 729 mmHg 22%
    19:00 +34°C° 0 mm 2 mps 729 mmHg 23%
    20:00 +32°C° 0 mm 2 mps 730 mmHg 24%
    21:00 +32°C° 0 mm 2 mps 730 mmHg 25%
    22:00 +31°C° 0 mm 1 mps 730 mmHg 26%
    23:00 +31°C° 0 mm 1 mps 730 mmHg 26%

    Tomorrow, 26 May, Sunday

    Time Temperature Precipitation Wind Pressure Humidity
    00:00 +31°C° 0 mm 1 mps 730 mmHg 27%
    01:00 +31°C° 0 mm 2 mps 730 mmHg 27%
    02:00 +31°C° 0 mm 2 mps 730 mmHg 27%
    03:00 +31°C° 0 mm 2 mps 730 mmHg 27%
    04:00 +31°C° 0 mm 3 mps 729 mmHg 27%
    05:00 +32°C° 0 mm 2 mps 730 mmHg 27%
    06:00 +32°C° 0 mm 2 mps 730 mmHg 28%
    07:00 +34°C° 0 mm 2 mps 730 mmHg 28%
    08:00 +35°C° 0 mm 2 mps 730 mmHg 27%
    09:00 +36°C° 0 mm 3 mps 731 mmHg 26%
    10:00 +38°C° 0 mm 4 mps 731 mmHg 25%
    11:00 +38°C° 0 mm 4 mps 730 mmHg 26%
    12:00 +39°C° 0 mm 3 mps 730 mmHg 28%
    13:00 +39°C° 0 mm 3 mps 729 mmHg 29%
    14:00 +39°C° 0 mm 3 mps 729 mmHg 28%
    15:00 +39°C° 0 mm 3 mps 728 mmHg 28%
    16:00 +40°C° 0 mm 3 mps 728 mmHg 27%
    17:00 +38°C° 0 mm 3 mps 728 mmHg 28%
    18:00 +37°C° 0 mm 2 mps 728 mmHg 29%
    19:00 +35°C° 0 mm 2 mps 728 mmHg 30%
    20:00 +34°C° 0 mm 2 mps 728 mmHg 31%
    21:00 +32°C° 0 mm 1 mps 729 mmHg 31%
    22:00 +32°C° 0 mm 1 mps 729 mmHg 32%
    23:00 +31°C° 0 mm 1 mps 729 mmHg 32%

    Day after tomorrow, 27 May, Monday

    Time Temperature Precipitation Wind Pressure Humidity
    00:00 +31°C° 0 mm 1 mps 728 mmHg 33%
    01:00 +30°C° 0 mm 1 mps 728 mmHg 33%
    02:00 +30°C° 0 mm 1 mps 728 mmHg 34%
    03:00 +30°C° 0 mm 1 mps 727 mmHg 35%
    04:00 +29°C° 0 mm 1 mps 727 mmHg 36%
    05:00 +31°C° 0 mm 2 mps 728 mmHg 33%
    06:00 +32°C° 0 mm 2 mps 728 mmHg 31%
    07:00 +35°C° 0 mm 3 mps 729 mmHg 29%
    08:00 +35°C° 0 mm 4 mps 729 mmHg 33%
    09:00 +35°C° 0 mm 6 mps 730 mmHg 37%
    10:00 +35°C° 0 mm 7 mps 730 mmHg 40%
    11:00 +36°C° 0 mm 6 mps 730 mmHg 42%
    12:00 +36°C° 0 mm 5 mps 729 mmHg 44%
    13:00 +37°C° 0 mm 3 mps 729 mmHg 46%
    14:00 +37°C° 0 mm 3 mps 728 mmHg 44%
    15:00 +38°C° 0 mm 2 mps 728 mmHg 41%
    16:00 +38°C° 0 mm 2 mps 727 mmHg 39%
    17:00 +36°C° 0 mm 2 mps 727 mmHg 41%
    18:00 +35°C° 0 mm 2 mps 727 mmHg 44%
    19:00 +33°C° 0 mm 1 mps 727 mmHg 46%
    20:00 +32°C° 0 mm 1 mps 728 mmHg 45%
    21:00 +32°C° 0 mm 1 mps 728 mmHg 43%
    22:00 +32°C° 0 mm 1 mps 729 mmHg 41%
    23:00 +31°C° 0 mm 2 mps 729 mmHg 39%

    28 May, Tuesday

    Time Temperature Precipitation Wind Pressure Humidity
    00:00 +31°C° 0 mm 3 mps 728 mmHg 37%
    01:00 +31°C° 0 mm 3 mps 728 mmHg 35%
    02:00 +30°C° 0 mm 5 mps 728 mmHg 45%
    03:00 +30°C° 0 mm 6 mps 728 mmHg 56%
    04:00 +30°C° 0 mm 7 mps 728 mmHg 66%
    05:00 +30°C° 0 mm 7 mps 729 mmHg 64%
    06:00 +30°C° 0 mm 7 mps 730 mmHg 61%
    07:00 +30°C° 0 mm 7 mps 730 mmHg 59%
    08:00 +32°C° 0 mm 7 mps 731 mmHg 58%
    09:00 +33°C° 0 mm 7 mps 731 mmHg 57%
    10:00 +34°C° 0 mm 7 mps 731 mmHg 57%
    11:00 +35°C° 0 mm 6 mps 731 mmHg 54%
    12:00 +35°C° 0 mm 5 mps 730 mmHg 51%
    13:00 +36°C° 0 mm 4 mps 730 mmHg 49%
    14:00 +37°C° 0 mm 3 mps 729 mmHg 47%
    15:00 +37°C° 0 mm 2 mps 728 mmHg 46%
    16:00 +37°C° 0 mm 2 mps 728 mmHg 44%
    17:00 +36°C° 0 mm 2 mps 728 mmHg 47%
    18:00 +35°C° 0 mm 2 mps 728 mmHg 49%
    19:00 +34°C° 0 mm 2 mps 728 mmHg 51%
    20:00 +34°C° 0 mm 3 mps 729 mmHg 51%
    21:00 +34°C° 0 mm 4 mps 729 mmHg 51%
    22:00 +34°C° 0 mm 4 mps 729 mmHg 51%
    23:00 +34°C° 0 mm 4 mps 729 mmHg 49%

    29 May, Wednesday

    Time Temperature Precipitation Wind Pressure Humidity
    00:00 +34°C° 0 mm 4 mps 729 mmHg 48%
    01:00 +33°C° 0 mm 4 mps 729 mmHg 47%
    02:00 +32°C° 0 mm 6 mps 729 mmHg 55%
    03:00 +31°C° 0 mm 8 mps 729 mmHg 63%
    04:00 +29°C° 0 mm 10 mps 729 mmHg 71%
    05:00 +29°C° 0 mm 9 mps 730 mmHg 72%
    06:00 +29°C° 0 mm 8 mps 731 mmHg 73%
    07:00 +28°C° 0 mm 7 mps 731 mmHg 74%
    08:00 +30°C° 0 mm 7 mps 732 mmHg 69%
    09:00 +32°C° 0 mm 6 mps 732 mmHg 64%
    10:00 +33°C° 0 mm 5 mps 732 mmHg 59%
    11:00 +34°C° 0 mm 6 mps 732 mmHg 57%
    12:00 +34°C° 0 mm 6 mps 731 mmHg 55%
    13:00 +34°C° 0 mm 6 mps 730 mmHg 53%
    14:00 +35°C° 0 mm 6 mps 730 mmHg 53%
    15:00 +35°C° 0 mm 5 mps 729 mmHg 53%
    16:00 +35°C° 0 mm 5 mps 729 mmHg 52%
    17:00 +34°C° 0 mm 4 mps 729 mmHg 55%
    18:00 +33°C° 0 mm 4 mps 729 mmHg 57%
    19:00 +33°C° 0 mm 4 mps 730 mmHg 59%
    20:00 +33°C° 0 mm 4 mps 730 mmHg 59%
    21:00 +33°C° 0 mm 4 mps 730 mmHg 58%
    22:00 +33°C° 0 mm 4 mps 730 mmHg 57%
    23:00 +33°C° 0 mm 4 mps 730 mmHg 58%

    30 May, Thursday

    Time Temperature Precipitation Wind Pressure Humidity
    00:00 +32°C° 0 mm 5 mps 730 mmHg 59%
    01:00 +32°C° 0 mm 6 mps 729 mmHg 59%
    02:00 +32°C° 0 mm 6 mps 730 mmHg 60%
    03:00 +32°C° 0 mm 6 mps 730 mmHg 61%
    04:00 +32°C° 0 mm 6 mps 730 mmHg 62%
    05:00 +32°C° 0 mm 6 mps 730 mmHg 63%
    06:00 +32°C° 0 mm 7 mps 731 mmHg 63%
    07:00 +32°C° 0 mm 7 mps 731 mmHg 64%
    08:00 +32°C° 0 mm 7 mps 732 mmHg 62%
    09:00 +33°C° 0 mm 7 mps 732 mmHg 60%
    10:00 +33°C° 0 mm 7 mps 732 mmHg 59%
    11:00 +34°C° 0 mm 6 mps 732 mmHg 57%
    12:00 +34°C° 0 mm 5 mps 731 mmHg 55%
    13:00 +35°C° 0 mm 4 mps 731 mmHg 53%
    14:00 +35°C° 0 mm 4 mps 730 mmHg 52%
    15:00 +35°C° 0 mm 3 mps 730 mmHg 52%
    16:00 +35°C° 0 mm 3 mps 729 mmHg 51%
    17:00 +35°C° 0 mm 3 mps 730 mmHg 52%
    18:00 +34°C° 0 mm 2 mps 730 mmHg 53%
    19:00 +32°C° 0 mm 2 mps 730 mmHg 55%
    20:00 +33°C° 0 mm 3 mps 730 mmHg 54%
    21:00 +33°C° 0 mm 4 mps 730 mmHg 52%
    22:00 +34°C° 0 mm 5 mps 731 mmHg 51%
    23:00 +33°C° 0 mm 5 mps 730 mmHg 52%
    Show more